Location: Lane
(33.5226°N, 79.8788°W)
Time: 09:06:43
(UTC+00:00)

Altair - Pass Details

Date: 05 October 2022
Orbit: 1501 x 1682 km, 47.2° (Epoch: 30 November)

Event Time Altitude Azimuth Distance (km) Brightness Sun altitude
Rises 15:50:41 0° 306° (NW) 4,905 9.8 47.5°
Reaches altitude 10° 15:53:50 10° 307° (NW) 3,929 9.4 47.8°
Maximum altitude 16:04:01 89° 37° (NE) 1,685 8.7 48.7°
Drops below altitude 10° 16:14:10 10° 128° (SE) 3,915 10.4 49.5°
Sets 16:17:17 0° 129° (SE) 4,886 10.7 49.7°
